Location: Unspecified
(49.9820°N, 20.4363°E)
Time: 04:26:10
(UTC+02:00)

Vanguard 3 - Pass Details

Date: 15 May 2026
Orbit: 507 x 3204 km, 33.3° (Epoch: 6 June)

Event Time Altitude Azimuth Distance (km) Brightness Sun altitude
Rises 21:10:52 0° 272° (W) 6,653 12.7 -7.7°
Reaches altitude 10° 21:22:11 10° 238° (WSW) 4,777 11.2 -9.0°
Maximum altitude 21:23:13 10° 233° (SW) 4,669 11.1 -9.1°
Drops below altitude 10° 21:24:14 10° 228° (SW) 4,581 11.0 -9.2°
Sets 21:32:29 0° 189° (S) 4,681 10.7 -10.2°
